GFSGL_700_temp_000.txt.gz
Temp
8 8 8 8 8 7 6 6 6 6 5 5 5 5 4 4 4 4 3 3 3 3 3 3 4 4 5 5 5 6 5 5 6 7 6 5 5 7 8 7 8 8 8
8 8 8 7 7 6 6 5 5 5 5 5 5 4 4 3 3 3 3 3 3 3 3 4 4 4 5 5 5 5 6 6 6 6 6 6 6 7 8 7 7 8 8
8 8 8 7 6 5 5 5 5 5 5 4 4 4 3 3 3 3 3 3 3 3 3 3 3 5 5 5 5 5 5 6 6 6 6 6 5 5 8 7 7 7 8
8 8 7 6 6 5 5 4 4 4 4 4 4 4 3 3 3 3 2 2 3 2 2 2 3 3 4 5 5 5 5 5 6 6 6 6 6 5 7 7 7 7 8
8 8 6 6 6 5 5 4 4 4 4 3 3 3 3 3 3 2 2 2 2 2 2 2 2 4 4 4 4 4 5 5 5 5 6 6 6 6 6 7 6 7 7
8 7 6 5 5 5 4 4 4 3 3 3 3 3 3 2 2 2 2 2 2 2 2 2 1 3 3 4 4 4 5 4 5 5 6 6 6 6 6 6 6 6 7
7 6 5 5 5 4 4 4 4 3 3 3 3 2 2 2 2 2 2 2 2 1 1 1 1 0 3 4 4 4 5 5 5 5 6 6 7 7 7 6 6 6 7
6 5 4 4 4 4 4 3 3 3 2 2 2 2 2 2 2 2 2 2 2 1 1 1 0 -0 1 2 4 5 6 6 6 6 6 7 6 7 6 6 6 6 6
6 5 4 4 4 4 3 3 2 2 2 2 2 2 2 2 2 2 2 2 1 1 1 1 1 0 1 1 2 5 6 6 6 6 6 6 6 6 6 6 6 6 6
5 4 4 4 3 3 3 2 2 2 1 1 1 1 1 1 2 2 2 1 1 1 1 1 1 1 -0 1 2 4 6 7 7 6 6 6 6 6 6 6 6 6 6
5 4 4 4 3 3 3 2 2 1 1 0 1 1 1 1 1 1 1 1 0 1 1 1 1 1 -1 -0 1 3 5 7 7 7 6 6 6 6 6 6 6 6 6
4 4 3 3 3 2 2 2 1 1 0 1 1 1 0 0 1 1 1 1 1 0 0 0 1 -0 -2 -1 0 1 5 5 5 6 5 6 6 6 6 6 7 6 6
4 4 3 3 2 2 2 2 1 1 1 0 0 1 0 0 -0 1 1 0 0 0 -1 -0 -1 -1 -0 -1 -0 0 3 5 5 6 6 6 6 6 6 6 6 6 6
4 4 3 2 2 2 2 1 0 0 0 1 1 -0 0 1 -1 1 1 0 0 -0 -0 -0 -0 -1 0 0 0 0 0 2 5 5 5 5 5 6 6 6 6 6 6
4 3 2 2 2 2 1 1 1 1 0 0 0 0 1 1 1 1 1 0 0 0 -0 0 -0 -0 -0 -0 -0 -0 0 0 1 2 4 5 6 5 5 5 5 5 5
3 2 2 2 2 1 1 1 1 0 -0 -0 0 0 1 1 1 1 2 1 0 0 0 0 -0 -0 0 -0 0 0 0 -0 1 1 1 2 3 5 5 5 5 5 5
3 2 2 2 1 1 1 0 0 -0 -0 0 0 0 0 0 1 1 1 1 0 1 1 0 -0 -0 0 0 0 0 0 1 0 0 1 0 1 2 3 5 5 5 4
2 2 2 1 1 1 1 0 -0 -0 -0 -0 0 0 0 0 0 0 1 1 1 1 1 0 0 -0 0 0 0 0 -1 -0 0 0 -0 1 0 0 0 0 1 2 3
1 1 1 1 1 1 0 -0 -0 -0 -1 -0 -0 0 0 0 0 0 1 1 2 2 2 1 0 0 0 0 -0 -0 -0 -1 -1 0 -0 -0 -1 -0 -0 0 0 1 1
1 1 1 0 0 -0 -0 0 -1 -1 -1 -1 -0 0 0 0 0 1 1 1 1 2 2 1 1 0 -0 -0 -0 -0 -0 -0 0 0 -0 -0 -0 -1 -0 -0 0 1 0
1 0 -0 -1 -1 -1 -0 -0 -0 -0 -1 -0 0 0 0 -0 -0 0 1 1 1 1 1 1 0 -1 -1 -1 -1 -1 -1 -0 -0 -0 -1 -0 -0 -0 -0 -0 -0 -0 0
-0 -1 -1 -1 -1 -1 -1 -1 -1 -1 -1 -0 0 0 0 -0 -0 0 0 0 0 0 0 -0 -0 -0 -1 -1 -1 -2 -1 -1 -1 -1 -1 -1 -1 -1 -1 -1 -0 -0 -0
-1 -2 -2 -2 -2 -2 -1 -1 -1 -1 -1 -1 -0 -0 -0 -0 -0 -0 -0 -0 -0 -0 -0 -0 -1 -1 -1 -0 -1 -2 -2 -2 -2 -2 -1 -1 -1 -1 -1 -1 -1 -1 -1
-2 -2 -2 -2 -2 -2 -2 -1 -1 -1 -1 -1 -1 -1 -1 -1 -1 -1 -1 -1 -1 -1 -1 -1 -1 -1 -1 -1 -1 -1 -1 -1 -1 -1 -1 -1 -1 -1 -1 -1 -1 -1 -1
-2 -3 -3 -3 -2 -2 -2 -2 -2 -1 -1 -2 -2 -2 -2 -2 -2 -2 -2 -2 -2 -2 -2 -2 -2 -2 -2 -2 -2 -2 -2 -2 -2 -2 -1 -1 -1 -1 -1 -1 -0 -0 -1
-4 -3 -3 -2 -2 -2 -2 -2 -2 -2 -2 -2 -2 -2 -2 -2 -2 -2 -2 -2 -2 -3 -3 -2 -2 -2 -2 -3 -3 -3 -3 -3 -3 -3 -3 -3 -2 -2 -2 -2 -2 -2 -2

GFSGL_700_temp_003.txt.gz
Temp
10 10 9 9 8 8 7 6 6 6 6 5 5 6 5 5 5 5 5 4 4 4 4 4 4 4 4 4 5 5 5 6 6 6 6 6 6 6 7 7 7 8 8
10 9 9 9 8 7 6 6 6 6 5 5 5 5 5 5 4 5 4 4 4 3 3 3 3 3 4 5 5 5 5 5 5 6 6 6 6 5 7 6 6 7 8
10 9 9 9 8 7 6 6 6 5 5 5 4 5 5 5 5 4 4 4 3 3 3 3 3 4 3 3 4 5 5 5 5 5 6 6 6 5 6 7 7 8 7
9 9 8 8 8 7 6 6 5 5 5 4 4 4 4 4 4 4 3 3 3 3 3 2 3 3 2 2 3 3 4 5 5 5 6 6 6 6 5 6 7 7 7
9 8 8 8 7 6 5 5 5 5 5 4 4 4 4 4 2 3 3 3 3 3 3 2 2 2 2 1 1 3 4 4 4 6 5 5 6 6 6 6 7 7 7
9 8 8 7 6 5 5 5 5 5 5 4 4 4 3 3 2 3 2 2 3 3 3 2 1 2 1 0 1 2 3 4 5 5 5 5 6 6 6 5 7 6 6
8 8 8 6 5 5 4 4 4 4 4 3 3 3 3 3 2 3 2 2 3 3 2 2 2 2 2 1 1 1 2 4 4 5 5 6 6 6 5 5 6 6 7
8 8 7 6 5 4 4 4 4 4 3 2 2 2 2 2 2 2 2 2 2 2 2 1 1 1 2 1 2 1 2 4 4 5 5 6 6 6 6 6 6 6 6
8 7 6 5 5 4 4 4 4 3 3 2 2 1 1 1 1 2 1 2 2 2 2 1 1 1 1 1 2 1 1 5 6 7 6 6 7 6 6 6 6 6 6
7 6 5 5 5 5 4 3 2 2 2 1 1 1 1 1 2 2 1 2 2 1 1 1 1 1 1 1 -0 0 1 4 7 7 8 7 7 6 6 6 6 6 6
6 6 6 5 5 4 4 3 2 2 2 2 2 2 1 1 1 1 1 1 1 2 1 1 0 0 -0 1 -0 0 1 3 5 6 7 7 7 6 6 6 6 6 6
6 6 5 5 4 3 3 3 3 2 2 2 1 2 1 1 0 1 2 2 1 1 1 1 0 0 0 0 -1 -0 0 2 5 5 6 6 6 6 6 6 6 6 6
6 6 5 5 4 3 3 2 2 2 1 1 0 1 0 1 1 0 1 1 1 1 1 0 0 0 0 0 -0 -0 -0 0 1 4 5 5 6 6 6 6 5 6 5
6 5 5 4 3 3 2 2 1 1 2 0 0 1 1 1 0 1 1 2 1 2 1 1 1 0 -0 -0 -0 -0 -1 -1 1 1 3 5 5 5 6 6 6 5 6
5 4 4 3 3 2 2 2 2 2 1 1 0 1 0 0 1 1 2 2 2 1 1 1 1 0 0 -0 0 0 -0 -0 -0 -0 0 2 5 5 6 6 5 5 5
4 3 3 2 2 2 1 2 1 1 1 0 0 0 1 1 1 1 1 1 1 1 1 1 1 1 0 0 1 1 -0 -0 0 0 0 0 2 4 5 5 5 6 5
3 2 2 2 1 1 2 1 1 1 1 0 0 0 0 1 1 1 0 1 1 1 1 1 1 1 1 1 -0 0 -0 0 -0 -0 0 0 0 1 2 4 4 5 5
2 2 2 1 1 2 1 1 1 1 1 -0 0 -0 -0 0 1 1 1 1 1 1 1 2 1 1 0 1 0 -0 -0 -1 -0 -0 -0 -0 -0 -0 -0 0 2 3 4
2 0 0 1 1 1 1 1 1 1 0 -1 -1 -0 0 0 1 1 1 1 1 1 2 1 1 1 -0 -0 0 0 -0 -0 0 -0 -0 -0 -0 -0 -0 -0 0 0 0
1 1 0 1 1 1 1 1 -0 -1 -0 -1 -1 -1 -1 1 1 1 1 1 1 1 1 1 1 0 0 -0 -0 -0 -0 -0 -0 0 -0 0 -0 -0 -0 -0 0 0 0
-0 0 0 0 0 -0 -1 -0 -1 -0 -0 -0 -0 -1 -0 0 0 0 0 0 0 0 -0 -0 0 0 -1 -1 -2 -1 -1 -1 -1 -0 -1 -0 -0 -0 -1 -0 -1 -1 -0
-0 -0 -1 -1 -1 -1 -1 -1 -0 -0 -0 -0 0 -0 0 0 -0 -0 -0 -0 -1 -0 -1 -1 -1 -1 -1 -1 -1 -2 -1 -2 -1 -1 -0 -1 -1 -1 -1 0 -1 -1 -1
-1 -1 -1 -1 -2 -2 -2 -1 -1 -1 -1 -1 -0 -0 0 0 -1 -1 -1 -1 -1 -1 -1 -1 -1 -1 -1 -1 -1 -1 -1 -1 -1 -1 -0 -0 -0 -1 -0 -1 -1 -0 -1
-1 -1 -2 -2 -2 -2 -2 -2 -1 -1 -1 -1 -1 -1 -1 -1 -1 -1 -1 -1 -1 -1 -1 -2 -2 -1 -1 -1 -1 -1 -1 -1 -1 -1 -1 -1 -1 -1 -1 -1 -1 -1 -1
-2 -2 -2 -3 -3 -2 -2 -2 -2 -2 -1 -1 -1 -2 -2 -2 -1 -2 -2 -2 -2 -2 -2 -2 -2 -2 -2 -2 -2 -2 -2 -2 -1 -2 -2 -2 -2 -2 -1 -1 -1 -0 -0
-3 -3 -2 -2 -2 -2 -2 -2 -2 -2 -2 -2 -2 -2 -2 -2 -2 -2 -2 -2 -2 -2 -2 -2 -3 -2 -2 -2 -2 -3 -3 -3 -3 -3 -2 -2 -2 -2 -2 -2 -2 -2 -1

GFSGL_700_temp_006.txt.gz
Temp
11 10 10 10 10 9 9 9 9 9 8 7 7 6 6 6 6 5 5 5 5 5 4 4 4 4 4 4 4 4 5 5 5 7 7 7 7 6 6 6 6 7 8
10 10 10 10 10 9 9 9 8 8 7 7 6 6 6 5 5 5 4 4 4 4 4 4 3 3 4 4 4 4 4 3 3 6 6 7 7 7 6 6 6 6 6
10 10 10 10 10 9 9 9 8 7 7 6 6 6 5 5 5 5 4 4 4 3 3 3 3 3 4 3 3 4 3 3 4 3 5 6 6 6 7 6 6 6 6
10 10 10 9 9 9 9 8 7 7 6 6 5 5 5 5 5 4 4 3 3 3 3 3 3 3 3 3 3 3 3 2 2 3 4 5 6 6 6 6 6 6 6
9 9 9 8 8 9 8 7 6 5 5 5 5 5 5 4 4 2 2 2 2 3 3 3 3 2 2 2 2 2 2 3 2 2 3 4 5 6 6 6 6 7 8
9 8 8 8 8 8 7 6 6 5 5 5 5 4 4 3 3 3 2 2 2 2 3 3 3 2 2 2 2 1 1 2 2 1 3 4 5 5 5 6 6 6 6
9 8 8 8 8 7 7 6 5 5 4 4 4 4 3 3 3 2 2 2 2 2 3 3 2 2 2 2 2 1 2 1 1 1 2 4 5 5 5 6 6 6 6
9 8 8 8 8 7 6 5 5 5 4 4 4 4 3 3 2 2 1 2 1 2 2 2 2 2 1 1 1 1 1 0 1 1 2 4 5 6 5 6 6 6 6
8 8 8 8 7 6 5 5 5 4 4 3 4 3 2 2 2 1 2 2 2 2 2 1 1 1 1 0 -0 0 -0 0 0 1 3 5 6 6 6 6 6 6 6
8 8 8 7 6 6 6 5 4 4 4 3 3 2 1 1 1 1 1 1 1 2 1 1 1 1 0 0 0 1 -0 -0 0 1 4 6 7 7 7 6 6 5 7
8 8 7 6 6 6 5 4 3 4 3 3 3 3 1 1 1 1 0 1 1 1 1 0 1 1 0 0 0 0 -0 -1 -0 1 4 5 8 8 7 6 6 6 6
8 7 6 6 5 4 4 3 3 3 3 3 3 2 1 1 1 1 0 1 1 1 1 1 1 1 0 0 0 -0 -1 -1 -0 1 2 5 6 8 7 7 6 6 6
7 6 6 6 5 5 4 4 3 3 3 2 2 1 1 1 0 1 1 1 1 1 2 1 1 1 0 0 0 -0 -0 -0 -0 -0 1 4 6 5 6 6 6 6 6
6 6 6 6 5 4 4 3 3 3 3 2 2 1 1 1 1 1 0 0 1 1 2 1 1 1 1 0 0 -0 -0 -1 -1 -1 -0 1 4 5 6 5 5 5 6
6 6 5 4 4 4 3 2 2 3 3 2 1 1 1 1 0 1 0 1 1 1 1 1 1 1 0 0 0 -0 -0 -1 -1 -1 -1 -0 1 5 5 5 6 6 6
6 6 4 3 3 3 3 2 2 3 2 1 1 1 1 1 1 1 1 1 1 1 1 2 2 1 1 1 0 -0 -0 -1 -1 -1 -1 -0 -0 0 3 5 5 5 6
4 4 3 2 2 2 1 2 2 2 2 2 1 1 0 1 0 0 1 1 1 1 1 2 2 1 1 0 0 -0 -0 -0 -0 -0 0 -0 -1 -0 0 2 4 4 6
4 4 3 3 2 2 2 1 1 1 1 1 1 1 1 0 0 0 1 1 1 1 1 1 2 2 1 0 -0 -0 -0 -0 -0 -0 -0 -1 -1 -0 -0 -0 0 2 2
4 3 2 2 1 1 1 1 1 1 1 1 1 1 0 -0 -0 -0 1 1 1 1 1 1 1 1 1 -0 -1 -1 -1 -0 -0 -1 0 -0 -0 -0 -1 -0 -0 0 0
4 3 2 0 1 1 0 1 1 0 -0 -0 1 0 0 -0 -1 1 1 1 1 1 1 1 1 0 0 -0 -2 -1 -1 -1 -0 -0 -0 -1 -1 -0 -0 -1 -1 0 -0
2 1 1 0 0 0 0 -0 -0 -0 -0 0 0 -0 0 -0 -0 -0 0 1 1 1 1 1 0 0 -0 -0 -1 -1 -3 -1 -1 -1 -1 -1 -1 -1 -1 -0 -0 -1 -1
0 1 -0 -1 -1 -1 -1 -1 -1 -0 -0 0 1 0 0 0 0 0 0 0 0 0 0 -0 -0 -0 -0 -0 -1 -1 -1 -1 -1 -2 -2 -1 -0 -1 -1 -1 -0 -0 -0
0 -0 -1 -1 -1 -1 -2 -2 -1 -1 -1 -1 -1 1 1 1 0 -0 -0 -0 -0 -1 -0 -0 -1 -1 -1 -1 -1 -1 -1 -1 -1 -1 -1 -1 -0 -0 -0 -0 -1 -0 -1
-1 -1 -1 -1 -2 -2 -2 -2 -2 -2 -1 -1 -1 -1 -1 -0 -0 -1 -1 -1 -1 -1 -1 -1 -1 -1 -1 -1 -1 -1 -1 -1 -1 -1 -1 -1 -1 -1 -1 -1 -0 -0 -1
-1 -2 -3 -2 -3 -2 -1 -1 -3 -2 -1 -1 -2 -2 -2 -1 -1 -1 -1 -1 -1 -1 -1 -1 -1 -2 -2 -2 -2 -2 -2 -2 -2 -2 -2 -2 -2 -2 -1 -1 -1 -1 -1
-3 -3 -3 -4 -4 -3 -2 -2 -3 -2 -2 -2 -2 -2 -2 -2 -2 -2 -2 -2 -2 -2 -2 -2 -2 -2 -2 -2 -2 -2 -3 -3 -3 -2 -2 -2 -2 -2 -2 -2 -2 -2 -2

GFSGL_700_temp_009.txt.gz
Temp
11 12 11 10 10 10 10 9 9 9 9 9 8 7 7 6 6 6 5 5 5 4 4 4 4 4 4 4 4 4 4 4 4 5 5 6 7 7 7 6 6 6 7
11 12 11 10 9 9 9 9 9 9 8 7 7 6 6 6 6 5 5 5 4 4 3 3 3 3 3 3 4 3 3 3 4 5 5 4 4 6 6 7 6 6 7
11 12 11 10 9 9 9 9 9 8 8 7 6 6 6 5 5 5 4 4 4 3 3 3 3 3 3 3 3 3 3 3 3 4 4 4 4 4 5 6 6 6 7
12 11 11 10 9 9 9 9 8 8 7 6 6 5 5 5 5 4 4 4 4 3 3 3 3 3 3 3 2 2 3 3 3 3 3 3 3 5 5 5 6 6 6
11 11 11 9 9 8 8 9 8 7 6 6 5 5 5 4 4 3 3 3 2 2 2 2 2 2 2 2 2 2 2 2 1 2 3 2 2 3 4 5 5 5 6
11 11 10 9 8 8 8 8 7 7 6 5 5 4 5 4 4 3 3 2 2 2 1 2 2 2 2 2 2 2 1 1 1 1 0 -0 1 1 3 5 4 5 6
11 10 9 8 8 8 8 7 7 6 5 5 4 4 4 4 4 3 3 2 1 1 1 2 2 2 1 1 1 1 1 1 0 -0 -0 0 1 2 3 4 5 5 6
10 9 8 8 8 8 8 7 6 6 5 4 4 4 4 3 4 2 2 1 1 1 1 1 1 1 1 1 1 1 1 0 -0 -1 -1 -1 0 1 4 5 5 5 6
10 9 8 8 8 8 7 6 6 5 4 4 4 3 3 3 3 2 2 2 2 2 1 1 1 2 1 1 0 0 1 0 0 -1 -1 -0 1 2 5 6 6 6 6
9 8 8 8 8 7 6 6 6 5 4 4 3 3 3 3 3 2 2 1 2 1 1 1 2 2 1 1 -0 0 0 0 -0 -1 0 0 2 4 5 6 7 7 7
8 8 8 8 7 6 6 6 6 4 4 3 3 3 3 3 3 2 2 1 1 1 2 2 2 1 1 0 -0 0 0 -0 -0 -1 -0 0 3 5 5 6 7 7 6
7 8 7 7 6 6 6 5 3 4 4 2 2 2 3 3 2 2 2 0 -0 1 1 2 3 2 1 0 0 0 -0 -0 -1 -1 -0 0 2 5 5 7 7 7 7
6 6 6 5 5 6 6 4 4 4 2 1 2 3 2 2 1 1 1 0 0 1 1 2 2 2 1 0 0 1 0 0 -0 -1 -1 -0 1 4 5 7 7 7 6
5 6 5 5 5 4 4 4 4 3 3 3 3 2 1 2 1 1 1 1 0 0 1 1 2 1 0 1 1 1 0 0 -0 -0 -1 -1 -1 3 5 5 6 6 6
5 5 5 5 5 4 4 4 4 2 2 3 2 1 1 2 1 1 0 -0 0 0 1 1 1 1 1 1 1 1 0 0 -0 -0 -1 -1 -0 -0 3 5 5 5 5
4 5 5 5 4 4 3 3 3 2 2 2 1 1 2 1 1 0 -0 -1 -0 1 1 1 1 1 1 2 2 1 0 0 -0 0 -1 -1 -1 -1 0 2 5 5 5
5 4 3 3 3 3 2 2 2 1 1 1 1 2 1 1 1 1 -0 -1 0 1 1 1 1 1 1 2 2 1 0 0 -0 -0 -0 -0 -1 0 -0 -0 0 3 4
4 4 3 3 2 2 2 2 2 1 1 1 1 2 1 0 1 -1 -1 -0 0 1 1 1 1 1 1 1 1 1 -1 -1 -1 -1 -0 -1 -1 -1 -1 -1 -0 -0 1
4 4 4 3 1 1 2 1 1 0 1 1 1 1 0 0 0 -0 -1 -1 -0 1 1 1 1 1 1 1 1 -1 -2 -1 -1 -1 -1 -1 -1 -1 -1 -1 -1 -0 -0
3 3 3 3 2 1 1 1 0 0 1 1 1 0 1 1 0 -0 -1 -1 -0 0 1 1 1 1 0 0 -0 -1 -2 -1 -1 -1 -2 -1 -1 -1 -1 -1 -1 -1 -0
3 3 3 2 1 1 1 1 -0 -0 -0 0 1 0 1 0 0 0 0 -0 0 1 1 1 0 -0 -0 -1 -0 -1 -1 -1 -0 -1 -1 -2 -1 -1 -1 -1 -1 -1 -0
2 2 2 0 0 0 -1 -1 -1 -0 -0 -0 1 0 0 -0 0 0 0 0 0 0 0 0 0 -0 -1 -1 -0 -1 -1 -0 -0 -0 -0 -0 -0 -0 -1 -1 -1 -1 -1
1 1 1 -0 -0 -0 -2 -2 -2 -1 -1 -1 -0 0 1 0 -1 -0 -0 -0 -0 -1 -0 -1 -1 -1 -1 -1 -1 -1 -1 -1 -1 -1 -1 -1 -1 -1 -1 -1 -1 -1 -1
0 -0 -0 -0 -0 -1 -1 -2 -2 -2 -2 -2 -2 -1 -0 -0 -0 -1 -1 -1 -1 -1 -1 -1 -1 -1 -1 -1 -2 -1 -1 -1 -1 -2 -2 -2 -2 -1 -1 -1 -1 -1 -0
-1 -1 -1 -0 -0 -1 -1 -0 -1 -2 -1 -1 -2 -2 -1 -1 -1 -1 -1 -2 -1 -2 -1 -1 -2 -2 -2 -2 -2 -2 -2 -2 -2 -2 -2 -2 -2 -2 -2 -2 -1 -1 -1
-2 -2 -3 -3 -4 -4 -2 -2 -2 -3 -2 -2 -2 -2 -2 -2 -2 -2 -2 -2 -2 -2 -2 -2 -2 -3 -2 -2 -2 -3 -3 -3 -3 -3 -3 -2 -2 -2 -2 -2 -2 -2 -2

GFSGL_700_temp_015.txt.gz
Temp
12 11 11 10 10 9 9 9 9 9 9 9 10 10 9 8 7 6 6 5 5 5 5 5 5 4 4 3 3 3 3 3 4 5 4 4 4 4 5 5 5 6 6
12 11 11 10 10 9 9 9 9 9 9 9 9 9 8 7 6 5 5 5 5 5 4 4 4 4 4 3 3 3 2 3 3 4 4 4 3 3 4 5 5 5 6
12 11 11 10 10 10 9 8 9 8 8 9 9 9 7 7 6 5 5 5 4 4 4 4 3 3 3 3 2 2 2 2 3 3 3 3 3 3 4 4 5 5 5
13 12 11 10 10 10 9 8 8 8 8 8 8 7 7 6 5 5 5 5 4 4 4 3 3 3 2 2 2 2 2 2 2 2 2 3 3 3 3 4 5 5 5
13 12 12 11 10 9 9 9 8 8 7 6 6 6 6 5 5 5 4 4 4 3 3 2 2 2 2 2 2 2 2 2 2 2 2 2 3 2 3 3 3 4 5
13 13 10 9 8 7 6 7 8 7 6 6 5 5 5 5 4 4 4 4 3 3 2 2 2 2 2 2 1 1 1 2 1 2 2 2 2 2 2 1 1 2 5
12 11 9 8 5 8 8 6 7 6 6 6 5 5 5 5 4 4 4 3 3 3 2 2 1 2 2 2 1 1 1 1 1 1 2 1 0 1 1 1 -0 -1 2
12 12 10 8 7 8 8 6 7 5 6 5 5 4 4 4 4 4 3 3 2 3 2 2 2 2 1 1 1 1 1 1 1 1 1 1 0 -0 -1 -1 -1 -1 0
12 11 9 8 8 8 8 7 6 4 5 5 5 5 5 4 3 3 3 3 3 3 2 2 2 1 0 1 1 2 1 2 1 1 1 1 -0 -0 -1 -1 -0 -0 -0
11 10 9 8 7 8 7 6 5 4 5 5 5 4 4 4 2 2 4 3 3 2 2 2 2 1 0 1 1 2 2 1 2 2 1 0 -0 -1 -1 -1 -0 -0 0
10 9 8 8 8 8 6 5 4 4 4 4 5 4 4 3 3 3 3 3 3 2 2 2 1 1 1 1 1 1 1 1 2 2 1 1 0 -0 0 -1 -0 0 3
9 9 9 9 8 7 5 5 4 2 4 4 4 4 3 3 3 2 2 3 2 2 2 1 1 1 1 1 1 1 1 2 2 2 1 0 0 1 0 -1 0 3 3
9 9 8 7 7 6 5 4 5 4 3 4 3 3 3 3 2 2 2 2 1 2 2 1 1 1 1 1 1 1 1 2 2 1 0 0 0 -0 -0 -0 0 3 3
8 7 7 6 6 5 5 4 5 3 3 4 4 3 3 2 2 2 2 1 1 2 1 1 1 0 1 1 1 1 1 2 1 1 0 -0 -0 -0 -0 -0 -0 2 3
7 6 6 6 6 5 5 5 4 3 3 3 3 3 2 2 2 2 1 1 1 1 1 1 0 0 0 1 1 1 1 1 -0 -0 -1 -0 -1 -0 -1 -1 -1 2 3
6 6 5 6 6 5 5 4 4 3 3 3 3 2 2 2 2 2 1 1 1 1 1 1 -0 -0 1 0 1 1 1 0 0 0 -1 -1 -1 -1 -1 -1 -1 0 3
6 6 6 5 5 5 4 4 3 3 3 2 2 2 2 1 1 1 1 1 1 1 0 -1 -1 0 0 0 0 0 0 0 0 -1 -1 -1 -1 -1 -0 -1 -0 -0 0
5 5 5 5 4 4 4 3 3 2 2 2 2 1 1 1 1 1 1 1 1 0 -1 -1 -0 -0 0 0 0 -0 -0 -0 -0 -1 -1 -1 -0 -0 -1 -1 -1 -1 -1
4 4 4 4 4 4 3 3 2 2 1 1 1 1 1 0 0 0 0 0 0 -0 -1 -1 -1 -1 -0 0 0 -0 -0 -0 -0 -0 -0 0 0 0 -0 -1 -1 -1 -1
4 4 3 3 3 3 2 2 2 1 1 0 0 0 -0 -0 -0 -0 0 0 -0 -0 -0 -1 -1 -1 -0 -0 -0 -0 -1 -0 -0 -0 -0 -0 0 0 -0 -1 -1 -1 -1
4 3 3 2 2 2 2 1 1 -0 -0 -1 -1 -0 -1 -1 -1 -0 0 -0 0 0 -0 -1 -1 -0 -0 -1 -1 -1 -1 -1 -1 -1 -1 -1 -0 -0 -0 -0 -1 -1 -1
2 3 2 2 1 1 0 0 -1 -1 -1 -1 -0 -0 -0 -1 -1 -1 -1 -1 -0 -0 -0 -1 -1 -1 -1 -1 -1 -1 -1 -1 -1 -1 -1 -1 -1 -1 -1 -1 -1 -1 -2
2 2 2 1 0 -0 -0 -1 -1 -1 -3 -2 -2 -1 -1 -1 -1 -2 -1 -1 -1 -1 -1 -1 -1 -1 -1 -1 -1 -2 -1 -1 -1 -2 -1 -1 -1 -1 -1 -1 -1 -1 -1
1 1 0 1 0 -0 -1 -1 -1 -1 -2 -2 -2 -2 -1 -2 -3 -3 -2 -2 -2 -2 -1 -1 -2 -2 -2 -2 -2 -2 -2 -2 -2 -2 -2 -2 -2 -1 -1 -1 -1 -1 -1
0 0 0 0 -1 -1 -2 -2 -2 -2 -2 -2 -2 -2 -3 -3 -3 -3 -3 -2 -2 -2 -2 -2 -2 -2 -2 -2 -2 -3 -3 -3 -2 -2 -2 -2 -2 -2 -2 -2 -2 -2 -1
0 0 -0 -2 -2 -3 -2 -4 -4 -4 -3 -3 -3 -3 -3 -3 -3 -3 -3 -3 -3 -3 -3 -3 -3 -3 -3 -3 -3 -3 -3 -3 -3 -3 -3 -3 -3 -3 -3 -3 -2 -2 -2

GFSGL_700_temp_021.txt.gz
Temp
13 13 12 12 12 10 10 9 9 8 8 8 8 8 8 9 9 8 9 8 7 6 5 5 5 5 5 4 4 4 4 3 4 5 4 4 4 4 4 4 4 4 4
13 13 12 12 12 11 8 9 9 8 7 7 8 8 8 8 8 7 7 7 6 6 6 5 5 4 5 4 4 4 3 3 3 4 4 3 3 3 3 3 3 3 4
14 13 12 12 11 11 10 9 7 7 7 6 7 7 7 7 7 7 6 6 6 6 5 5 4 4 4 4 4 4 3 3 3 3 3 3 3 3 3 3 3 3 4
14 14 13 12 11 11 10 9 9 8 6 6 7 6 6 7 6 6 7 6 5 5 5 4 4 4 4 4 4 3 3 3 3 3 3 3 3 3 4 4 4 4 4
14 14 13 13 11 11 10 10 9 7 7 7 6 6 6 6 5 6 6 5 4 4 4 4 3 3 4 4 3 3 3 3 3 3 3 2 3 3 3 3 4 4 4
14 13 13 13 12 11 10 10 9 9 8 8 7 5 6 6 5 5 5 4 4 4 4 4 4 3 3 3 3 3 2 3 2 2 2 2 3 3 3 3 3 3 4
14 14 14 13 13 12 12 10 10 8 8 8 7 6 6 5 5 4 5 4 4 4 3 3 3 3 3 3 3 2 2 2 2 2 2 2 2 2 2 2 2 3 3
14 14 13 13 13 12 12 11 10 9 8 8 8 6 5 5 4 4 4 3 3 3 3 3 3 3 3 2 2 2 2 2 2 2 2 2 2 2 2 2 2 2 2
13 13 13 13 13 12 11 11 10 9 8 8 7 5 5 5 4 3 3 3 3 3 3 3 3 3 2 2 2 2 2 2 2 1 1 1 1 2 1 2 1 1 2
13 12 12 12 11 11 10 9 9 8 8 8 8 6 5 5 5 4 3 2 2 3 3 2 2 2 2 2 2 2 2 2 1 1 1 1 1 2 2 1 0 0 1
12 12 12 11 11 11 9 8 8 8 7 7 7 5 4 4 4 3 3 3 2 2 3 2 2 2 2 2 2 2 2 2 1 1 1 1 1 2 1 0 -1 -1 -0
12 13 12 11 10 10 9 8 8 8 6 6 5 5 4 4 4 4 3 3 2 3 2 2 2 2 2 2 2 2 1 1 1 1 1 2 2 1 1 0 0 -0 -0
11 11 11 11 9 9 9 8 8 7 6 5 5 4 4 4 4 3 3 3 3 2 1 2 2 2 2 2 1 1 1 1 1 1 1 2 1 1 1 1 0 0 0
10 11 10 9 8 8 8 8 7 7 6 5 5 4 5 4 3 3 3 3 2 2 1 1 1 1 1 1 1 1 1 1 1 1 1 2 2 1 1 0 1 0 0
9 8 8 7 8 8 7 6 6 5 5 5 4 4 3 3 3 3 3 2 2 1 1 1 1 1 1 1 1 0 0 1 1 1 1 2 1 1 1 0 0 -0 -1
7 7 7 7 7 6 6 6 4 4 4 3 3 3 3 3 3 3 2 2 1 1 1 1 1 1 1 1 0 -0 0 1 1 1 1 1 1 1 1 0 -0 -1 -1
7 7 7 6 6 6 5 4 4 3 3 3 3 3 3 3 3 2 2 1 1 1 1 1 1 1 1 1 -0 -0 -0 0 1 1 1 1 1 1 1 0 -0 -1 -0
6 6 5 5 5 5 4 4 4 3 3 3 3 3 3 2 2 2 2 2 1 1 0 1 1 1 1 0 -0 -0 -0 0 1 1 1 1 0 0 0 0 -0 -1 -1
5 5 4 4 4 4 3 3 3 3 3 3 3 2 2 2 2 1 1 0 0 0 0 0 0 1 1 1 0 -0 -0 0 0 0 0 0 -0 -0 -0 -0 -1 -1 -1
4 4 4 4 3 3 3 3 3 3 2 2 2 2 2 2 2 1 1 1 1 1 1 0 0 1 1 1 0 0 0 0 0 -0 -0 -1 -1 -1 -0 -0 -0 -1 -1
4 4 3 3 3 3 3 2 2 1 1 1 1 1 1 1 1 1 1 1 1 1 0 0 0 1 0 0 0 -0 -0 -0 -0 -1 -1 -1 -1 -1 -1 -1 -0 -1 -1
3 3 3 3 2 2 2 2 2 1 0 0 -0 0 1 1 0 -0 0 1 0 0 0 0 0 0 -0 -0 -0 -1 -1 -1 -1 -1 -1 -1 -1 -1 -1 -1 -1 -1 -1
3 2 2 2 2 2 1 1 1 0 -1 -0 -1 -1 -1 -1 -1 -1 -0 -0 0 0 0 -1 -1 -1 -1 -1 -1 -1 -1 -1 -1 -2 -2 -2 -2 -2 -2 -1 -1 -1 -1
2 2 2 1 1 1 1 0 0 -0 -1 -1 -1 -1 -1 -1 -1 -1 -1 -1 -0 -0 -1 -1 -1 -1 -1 -1 -1 -2 -2 -2 -2 -2 -2 -2 -2 -2 -2 -2 -2 -2 -1
2 2 1 1 1 0 0 0 -0 -1 -2 -2 -2 -2 -3 -3 -2 -2 -2 -1 -1 -1 -1 -1 -1 -2 -2 -2 -2 -2 -2 -2 -2 -2 -3 -3 -3 -3 -2 -2 -2 -2 -2
1 1 1 1 1 0 -0 -1 -1 -2 -2 -3 -3 -2 -2 -2 -2 -2 -2 -2 -2 -2 -2 -2 -2 -2 -2 -2 -2 -2 -2 -2 -3 -3 -3 -3 -3 -3 -3 -3 -3 -2 -2

GFSGL_700_temp_024.txt.gz
Temp
14 13 13 13 13 12 12 11 11 10 10 10 9 8 8 8 8 8 8 8 8 7 7 6 6 5 5 5 4 4 5 5 6 5 5 5 5 5 5 4 4 4 4
14 14 13 13 13 12 12 11 11 10 9 9 8 7 7 7 8 8 8 7 7 6 6 6 5 5 5 5 4 4 4 4 4 5 5 5 5 4 4 4 4 4 4
14 14 13 13 13 12 12 11 11 10 10 9 8 7 5 6 7 7 7 7 7 6 6 5 5 4 4 4 4 4 4 4 4 4 4 5 5 4 3 3 3 3 4
15 14 14 14 13 12 12 11 11 10 10 9 9 8 8 7 7 7 7 6 6 5 5 5 4 4 4 4 4 4 4 4 4 3 3 4 4 3 2 3 2 1 3
15 15 14 14 13 12 11 11 11 11 11 9 8 8 7 7 7 6 6 5 6 5 5 4 4 4 4 4 4 4 3 3 3 2 2 3 3 2 2 2 3 3 3
15 15 14 14 14 13 13 13 12 12 11 9 9 8 7 5 5 5 5 5 5 4 4 3 3 3 3 3 3 3 3 3 3 2 3 3 3 2 2 3 3 3 3
15 15 15 14 14 14 14 14 14 13 11 9 9 8 8 6 6 5 5 5 5 4 4 3 3 3 3 3 3 3 3 2 2 2 2 2 2 2 2 3 3 3 2
16 15 15 14 14 13 13 13 13 12 11 10 9 8 8 7 7 5 5 5 5 5 4 3 2 3 3 2 3 3 3 2 3 3 2 2 2 2 1 2 3 2 3
15 15 14 14 13 13 13 12 13 12 11 10 9 8 8 8 7 6 5 5 5 4 4 3 3 2 3 2 2 2 2 2 2 2 3 2 1 1 1 2 2 2 2
15 14 13 13 12 12 12 12 12 11 10 10 9 9 8 8 6 5 5 5 5 3 3 2 3 2 2 2 2 2 2 2 2 2 2 2 2 2 2 2 2 2 0
14 13 12 12 11 11 12 11 11 11 9 9 8 8 8 7 5 5 5 4 3 3 3 3 3 3 2 2 2 2 2 2 2 2 2 1 2 2 2 1 1 1 1
13 12 11 11 11 11 12 10 10 10 9 8 8 8 7 6 5 4 4 4 3 3 3 3 3 3 2 2 2 2 1 2 1 1 1 1 2 2 1 1 1 1 1
12 11 11 11 11 11 10 9 9 9 8 8 7 7 6 5 4 4 3 3 3 3 3 3 2 2 2 2 2 2 2 1 1 1 1 1 1 1 1 1 2 2 1
12 11 11 10 10 9 8 8 8 8 8 7 6 6 5 4 3 3 3 3 2 3 3 3 2 2 2 2 2 2 1 1 1 0 1 1 1 2 1 1 2 2 2
10 10 10 10 9 8 8 7 7 7 7 6 5 5 5 3 4 4 3 3 3 3 2 2 2 1 1 1 1 1 1 0 -0 0 1 1 2 1 1 1 1 2 1
11 10 9 9 8 8 7 7 6 6 5 4 4 4 3 3 3 3 3 3 3 2 2 1 1 1 1 1 1 0 0 0 0 0 0 1 1 1 1 1 1 1 1
9 8 8 8 7 7 7 6 6 5 4 4 3 3 3 3 3 3 3 2 2 1 1 1 1 1 1 1 0 0 0 -0 -0 -0 0 1 1 1 1 1 1 1 0
7 7 7 7 6 6 6 5 4 4 3 3 3 3 3 3 3 2 2 1 1 1 1 1 1 1 1 1 1 0 0 0 -0 0 1 1 1 1 1 1 1 1 0
6 6 6 5 5 5 5 5 4 4 3 3 3 3 2 2 2 2 1 2 1 1 1 1 1 1 1 1 0 0 0 0 -0 0 0 0 0 0 0 0 0 0 -1
5 5 5 5 5 4 4 4 4 3 3 3 3 2 2 2 2 2 2 2 2 1 1 1 1 1 1 0 0 0 0 0 0 -0 -0 -0 -0 -0 -0 -0 -0 -0 -0
4 4 4 4 4 4 3 3 3 3 2 2 2 2 1 1 1 1 1 1 1 1 1 1 1 1 0 0 0 0 -0 -0 -0 -1 -1 -1 -1 -1 -1 -1 -1 -1 -0
4 3 3 3 4 3 3 3 2 2 2 1 1 1 0 0 0 1 0 1 1 0 0 0 0 0 -0 -0 -1 -0 -1 -1 -1 -1 -1 -1 -1 -1 -1 -1 -1 -1 -1
2 3 3 3 3 3 2 2 2 2 0 -0 -0 0 -0 -0 -0 -0 -0 -0 -0 -0 -0 -0 -0 -0 -1 -1 -1 -1 -1 -1 -1 -1 -2 -2 -2 -2 -2 -1 -1 -1 -1
2 2 2 2 2 2 2 2 1 1 1 0 -0 -1 -1 -1 -1 -2 -1 -1 -0 -0 -0 -0 -0 -1 -1 -1 -1 -1 -1 -1 -2 -2 -2 -2 -2 -2 -2 -2 -2 -2 -2
2 2 2 0 2 2 1 1 1 1 0 -0 -0 -1 -2 -3 -3 -4 -2 -1 -1 -1 -0 -0 -1 -1 -1 -1 -1 -1 -2 -2 -2 -2 -2 -2 -2 -3 -3 -2 -2 -2 -2
1 1 1 0 -0 1 1 1 1 0 -1 -1 -2 -3 -3 -3 -4 -4 -3 -2 -1 -1 -1 -1 -1 -1 -1 -1 -1 -2 -2 -2 -2 -2 -2 -3 -3 -3 -3 -3 -3 -3 -2

GFSGL_700_temp_027.txt.gz
Temp
14 14 14 13 13 13 13 12 12 12 11 11 10 10 10 9 8 8 7 7 8 8 8 8 8 7 6 6 6 6 5 5 4 3 3 4 5 4 5 6 5 5 5
15 14 14 13 13 13 13 13 12 12 12 12 11 10 10 10 9 8 6 7 8 8 8 7 6 7 6 5 5 5 5 5 5 5 5 5 6 5 5 5 4 4 4
15 14 14 14 14 13 13 13 13 12 12 12 11 11 10 9 9 8 8 7 7 7 7 6 6 6 6 5 5 4 4 4 4 4 5 5 6 5 5 4 3 3 4
15 14 14 14 14 14 13 13 12 12 12 12 11 10 10 9 9 8 7 7 7 7 6 6 6 6 5 5 4 4 4 4 4 4 5 4 5 5 5 4 3 3 2
15 15 15 15 14 14 14 13 13 12 11 11 10 10 9 9 8 7 6 6 6 6 6 5 6 5 5 4 3 3 3 3 3 3 3 3 3 3 3 3 3 3 2
15 15 15 15 15 14 14 14 14 12 12 12 12 11 10 9 8 7 6 5 5 5 5 5 5 5 4 3 3 3 3 3 4 3 3 3 3 3 3 3 3 3 3
15 15 15 15 14 14 14 14 14 14 13 13 12 11 11 9 8 7 6 6 6 5 5 5 6 5 4 3 2 3 3 3 3 3 3 3 3 3 3 3 3 3 3
16 16 15 15 15 15 14 14 13 13 13 13 12 11 11 10 8 7 7 6 5 5 5 5 5 4 3 3 3 3 2 2 2 3 3 3 3 2 2 2 3 3 3
16 16 16 15 15 14 14 13 12 13 12 12 12 11 10 10 8 7 7 6 5 5 5 5 5 4 4 3 3 2 2 2 2 2 3 3 2 2 2 2 2 2 3
16 16 15 15 14 14 13 13 13 12 12 12 12 11 10 9 9 8 7 6 6 5 5 5 5 4 4 3 3 3 3 3 2 2 2 2 2 2 2 2 3 3 3
16 16 15 14 14 13 13 12 12 12 12 11 11 11 9 8 8 8 6 6 5 4 5 5 4 4 3 3 3 3 2 2 2 2 1 2 2 1 -1 -2 1 2 2
15 14 14 13 13 12 12 12 11 11 11 11 10 10 9 8 7 7 6 6 5 4 4 4 3 4 3 3 2 2 2 2 2 1 1 1 1 0 1 1 1 1 1
14 13 13 13 12 12 12 11 11 11 10 10 9 9 8 7 7 6 6 5 4 4 3 3 3 4 3 2 2 2 2 2 1 1 1 1 0 1 1 2 2 2 2
13 12 12 11 12 12 11 11 11 10 9 9 9 9 8 7 6 5 5 4 3 3 3 3 3 2 2 2 2 2 2 1 1 1 1 1 0 1 1 1 1 1 1
11 11 11 11 11 11 11 10 10 9 8 8 8 7 7 5 5 5 4 3 3 3 3 2 2 2 2 2 2 2 2 1 1 1 0 0 0 0 1 1 1 1 0
11 11 11 11 10 10 11 9 8 8 8 7 7 6 5 4 4 4 4 4 3 3 2 2 2 1 1 0 -0 -1 -1 -1 1 1 0 0 -0 0 1 1 1 -0 -0
11 10 10 9 9 9 9 8 8 7 7 6 6 5 4 4 4 4 3 3 3 2 2 2 1 0 -1 -1 -0 -1 -0 -0 0 -0 0 0 0 0 0 0 -0 -0 -0
9 10 9 8 8 8 7 6 6 6 6 5 5 4 4 4 3 3 3 2 2 2 2 2 1 1 -0 1 1 0 0 0 0 0 0 0 -0 -0 -0 -1 -1 -0 -0
9 7 7 7 7 7 6 6 5 5 5 5 4 4 4 3 3 3 2 2 2 2 1 1 1 1 1 1 1 1 0 0 0 0 0 -0 -1 -1 -1 -1 -1 -1 -0
7 6 6 6 6 5 5 5 4 3 4 4 4 4 4 3 2 2 2 2 2 2 2 1 1 1 1 1 1 1 0 0 0 -0 -0 -1 -1 -1 -1 -1 -1 -1 -1
5 5 5 5 5 4 3 3 2 2 2 1 1 2 3 2 2 1 2 2 2 2 1 1 1 1 1 1 1 0 0 -0 -0 -1 -1 -1 -1 -1 -1 -1 -1 -2 -2
4 3 4 3 3 3 2 2 2 2 2 2 2 1 2 1 -0 -1 0 1 1 1 1 1 1 1 1 1 0 -0 -0 -1 -1 -1 -1 -1 -2 -1 -1 -2 -2 -2 -2
3 4 3 2 3 3 2 2 3 2 2 1 1 0 1 1 0 -0 -0 0 1 1 1 1 1 1 1 0 -0 -0 -1 -1 -1 -1 -1 -2 -2 -2 -2 -2 -2 -2 -2
2 2 3 3 1 3 2 2 2 1 1 0 1 0 1 1 1 -0 1 -2 -0 1 1 0 0 1 0 -0 -0 -1 -1 -1 -1 -1 -2 -2 -2 -2 -2 -2 -2 -2 -3
2 2 1 2 1 2 1 1 0 1 1 0 -0 1 -1 -1 -0 -1 -1 -1 -2 0 0 0 0 0 -0 -0 -1 -1 -1 -1 -2 -2 -2 -2 -2 -2 -2 -2 -3 -3 -3
1 1 1 1 1 0 1 1 2 1 1 -0 -0 -1 -1 -2 -2 -3 -3 -3 -4 -4 -1 -0 0 -0 0 -0 -1 -1 -1 -2 -2 -2 -2 -2 -2 -2 -2 -2 -3 -3 -3

GFSGL_700_temp_030.txt.gz
Temp
15 15 14 14 14 13 13 13 13 12 12 12 12 11 11 11 10 9 9 9 8 7 7 8 8 8 7 7 7 6 5 6 6 5 4 4 4 3 4 5 5 6 6
16 15 15 14 14 13 13 13 13 13 12 12 12 12 11 11 10 9 9 9 8 8 8 7 8 8 7 6 7 6 6 5 5 5 5 5 5 5 5 6 6 5 4
16 15 15 15 14 14 14 13 13 13 12 12 12 12 12 11 10 10 9 9 8 7 6 7 7 7 7 7 6 6 6 5 4 4 4 4 4 4 5 4 4 4 4
16 15 15 15 14 14 14 14 13 13 13 13 12 12 11 11 10 10 9 9 8 7 6 6 6 6 6 6 5 4 4 5 4 4 4 4 4 3 3 3 4 4 4
16 15 15 15 15 14 14 14 14 13 13 13 12 12 12 11 11 11 9 8 7 7 6 5 5 6 6 6 5 4 4 4 3 3 4 4 4 4 4 3 3 4 4
17 16 15 15 15 15 14 14 14 13 14 13 13 12 12 12 11 10 9 7 7 6 6 6 5 5 6 5 5 4 3 3 3 3 3 3 4 3 3 3 3 3 3
17 16 15 15 15 15 15 14 14 14 14 13 13 13 13 12 11 10 10 8 7 6 6 6 5 5 5 5 5 4 4 3 3 3 2 2 2 2 2 2 2 3 3
17 16 16 15 15 15 15 14 14 14 14 14 13 12 12 12 11 10 10 9 7 6 6 6 6 5 5 5 4 4 3 3 3 3 3 2 3 2 1 2 3 3 3
17 17 16 16 16 15 15 14 14 14 14 13 12 12 12 12 11 11 10 9 8 7 6 6 7 5 5 4 4 4 4 3 3 3 3 3 3 2 2 2 2 2 2
17 17 16 16 16 15 14 14 14 13 12 12 12 12 11 11 11 11 10 9 8 8 7 7 6 5 4 4 3 4 4 3 3 2 2 2 2 2 1 1 2 2 2
17 17 16 16 15 14 14 13 13 12 12 11 11 11 11 11 10 9 9 8 8 7 7 6 5 4 3 3 3 4 4 3 2 2 2 2 2 1 1 -0 -0 1 0
17 16 16 16 14 14 13 12 12 12 11 11 11 10 10 10 9 9 8 7 7 6 6 5 5 4 3 3 3 3 3 2 2 2 1 1 1 1 1 0 -0 -0 -0
16 16 16 14 13 13 12 13 12 12 11 11 11 10 10 9 8 8 7 7 6 6 5 4 4 3 3 3 3 2 2 2 2 1 1 2 1 1 0 0 0 1 1
15 14 14 13 12 12 11 11 11 11 11 10 10 10 9 8 7 6 6 6 5 5 4 3 3 3 3 3 2 2 1 1 1 2 1 1 1 0 0 0 0 1 1
12 12 12 11 11 12 12 12 11 10 9 8 8 8 8 8 7 6 5 5 4 4 4 4 3 3 3 3 2 2 2 1 0 2 1 0 0 0 0 0 1 1 1
11 11 11 11 12 12 11 11 9 8 8 8 8 7 7 6 6 5 5 5 5 4 4 4 3 2 2 1 1 0 -1 -2 -2 -0 1 0 0 0 0 0 0 0 0
11 11 12 12 12 12 10 10 9 9 8 7 7 7 6 6 5 5 5 4 4 4 3 3 2 1 0 -0 0 -0 -1 -1 -1 1 0 0 0 0 0 0 -0 -0 -0
10 10 11 11 11 10 9 8 8 8 7 7 6 6 6 5 5 5 4 4 3 3 2 2 2 2 1 1 2 1 1 1 0 0 0 0 -0 -0 -0 -0 -0 -1 -1
10 10 9 9 9 7 7 7 7 7 7 6 5 5 5 4 4 4 4 3 3 2 2 1 2 2 2 1 2 2 1 1 0 0 0 -0 -0 -1 -1 -1 -1 -1 -1
8 7 7 7 6 6 6 6 5 4 6 5 5 5 4 4 4 4 3 3 2 2 2 2 2 2 1 1 1 1 1 1 1 1 0 -0 -1 -1 -1 -1 -1 -1 -2
6 6 6 5 5 6 5 5 4 3 3 4 4 4 4 3 3 3 3 3 2 2 2 2 2 1 1 2 2 1 1 1 0 0 -0 -0 -1 -1 -1 -2 -2 -2 -2
5 5 5 4 4 4 4 4 2 3 2 2 2 2 3 3 1 1 1 1 2 2 2 2 1 1 2 2 1 1 1 0 0 -0 -1 -1 -1 -1 -2 -2 -2 -2 -2
3 4 4 4 3 3 3 3 2 2 3 2 2 1 1 1 1 0 0 -0 -1 -0 2 2 1 1 1 1 1 1 0 0 -0 -0 -1 -1 -2 -2 -2 -2 -2 -3 -3
4 4 3 3 3 2 3 4 2 2 1 1 1 1 1 0 0 1 1 0 -0 -1 2 1 1 1 1 1 1 1 0 -0 -0 -1 -1 -1 -2 -2 -2 -2 -2 -3 -3
2 3 2 3 3 2 2 2 1 1 1 0 1 0 0 1 -0 -2 -1 -0 -0 -0 1 1 1 1 1 1 1 0 -0 -0 -1 -1 -1 -2 -2 -2 -2 -2 -3 -3 -3
2 2 1 2 2 2 1 1 1 1 0 1 -0 1 0 1 -1 -0 -1 0 -1 -1 0 1 2 1 1 1 0 0 -0 -1 -1 -1 -1 -2 -2 -2 -2 -2 -3 -3 -3

GFSGL_700_temp_033.txt.gz
Temp
16 16 15 15 14 14 14 14 13 13 12 12 12 12 11 11 11 10 10 10 10 9 8 8 7 8 7 7 7 6 6 6 7 5 5 4 4 3 3 5 5 5 6
16 16 16 15 14 14 14 14 13 13 13 13 12 12 12 11 11 10 10 10 9 9 8 7 7 7 7 7 6 6 5 5 5 5 5 5 4 4 4 5 5 6 6
16 16 16 15 15 14 14 14 13 13 13 13 13 13 12 12 11 11 10 9 9 8 8 7 6 6 6 6 6 6 5 4 4 4 4 4 4 4 5 5 5 5 5
17 16 16 16 15 15 14 14 14 14 13 13 13 13 12 12 11 11 10 10 9 8 7 7 6 5 5 6 6 5 6 5 4 3 3 3 3 3 3 4 5 4 4
17 16 16 16 16 15 15 14 14 14 14 13 13 13 12 12 11 11 10 10 9 8 7 7 6 5 6 5 5 5 5 5 4 4 4 4 4 4 3 3 3 4 4
17 17 16 16 16 15 15 14 14 14 14 14 13 13 12 11 11 11 10 10 9 8 7 7 6 6 5 5 5 5 5 5 4 4 4 3 4 4 3 3 3 4 4
17 17 17 16 16 15 15 15 15 14 14 14 13 13 12 12 12 12 11 10 9 8 7 5 6 6 5 5 5 4 4 4 4 3 3 3 3 3 3 2 2 3 3
18 18 18 17 16 15 15 15 15 14 14 13 13 13 12 12 11 11 11 11 10 9 8 7 6 6 5 5 4 3 3 3 4 3 3 4 3 3 3 2 2 3 3
18 18 18 17 16 15 15 15 15 14 13 13 13 12 12 12 12 11 11 10 10 9 8 7 6 6 6 6 5 4 3 3 3 3 3 3 3 2 2 2 3 2 3
18 18 18 17 17 16 15 15 14 13 13 13 12 12 12 11 11 11 11 11 10 8 7 7 6 5 5 5 5 4 4 3 3 3 3 3 2 2 2 2 2 2 2
17 18 17 17 17 16 16 15 14 13 12 12 12 11 11 10 11 11 10 10 9 8 7 7 6 6 5 5 4 3 3 2 3 3 3 2 2 2 1 1 2 1 0
16 17 17 17 17 17 16 15 12 12 12 12 11 12 11 11 10 10 9 8 8 7 7 6 6 5 5 4 4 3 3 2 2 2 2 2 1 1 1 1 0 -0 -0
16 16 16 15 16 15 14 12 11 11 12 12 11 11 10 9 9 8 8 8 7 7 6 6 5 5 4 4 4 3 2 2 2 2 2 2 1 1 1 0 -0 -0 -0
15 15 15 15 13 12 12 11 11 11 11 11 11 10 9 8 8 7 7 7 6 6 6 5 5 4 3 3 3 2 2 2 2 3 2 2 1 0 0 -0 0 0 1
14 13 13 13 11 11 11 11 11 11 11 10 11 10 9 8 7 8 7 6 5 5 5 4 4 3 3 3 3 3 2 3 3 2 2 2 1 1 0 0 0 0 0
12 11 11 11 10 10 11 11 11 11 10 10 9 10 9 7 6 6 5 5 5 5 4 4 3 3 3 3 3 3 2 2 3 3 2 1 1 0 0 0 -0 0 -0
11 9 10 10 10 11 12 11 10 9 9 9 8 7 8 6 6 5 5 5 4 4 4 3 3 3 3 3 3 3 2 2 1 1 1 0 -0 0 0 0 -0 -0 -0
9 8 10 10 11 10 11 10 9 9 7 8 7 7 6 5 5 5 5 5 4 4 4 3 3 3 3 3 3 2 2 1 1 0 0 0 -0 0 -0 -0 -0 -1 -1
9 10 10 10 10 10 10 9 9 7 7 6 6 6 5 5 5 5 5 4 4 3 3 3 3 2 3 2 2 1 1 0 0 0 0 0 0 -0 -0 -1 -1 -1 -1
10 10 10 10 9 8 8 9 7 6 6 6 5 5 4 5 4 4 4 4 3 2 2 2 2 2 2 1 1 1 1 1 1 1 0 0 -0 -1 -1 -1 -1 -1 -1
7 7 7 7 7 8 8 7 6 3 4 5 4 4 4 4 4 4 4 3 2 2 2 2 1 2 2 2 1 1 1 2 2 1 0 -0 -1 -1 -1 -1 -1 -2 -2
6 5 5 5 5 4 4 3 3 3 4 4 4 4 4 3 4 3 3 3 3 3 3 2 2 2 2 2 2 2 2 2 1 0 -0 -0 -1 -1 -2 -2 -2 -2 -2
5 4 4 3 4 3 4 3 3 3 3 3 3 2 3 2 2 2 2 2 0 2 3 3 2 2 2 1 1 1 1 1 1 0 -0 -1 -1 -1 -2 -2 -2 -2 -2
3 3 2 3 3 3 3 3 3 3 2 2 2 2 1 0 1 1 0 0 1 1 2 3 2 1 1 2 2 1 1 1 1 0 -0 -1 -1 -1 -2 -2 -2 -2 -2
3 3 4 3 3 3 3 3 2 3 2 2 2 1 1 1 1 1 1 -1 -2 -0 1 2 1 1 1 1 1 1 1 1 1 0 -0 -1 -1 -1 -2 -2 -2 -2 -2
2 2 2 3 3 2 2 2 1 2 1 0 0 0 1 1 1 0 -1 -1 -1 -0 1 1 2 2 1 0 1 1 1 1 1 0 -0 -1 -1 -1 -2 -2 -2 -2 -2

GFSGL_700_temp_036.txt.gz
Temp
15 14 16 16 15 15 14 14 14 13 13 12 12 12 11 11 11 11 10 10 9 9 9 8 8 7 7 6 7 6 6 6 6 5 5 4 4 4 4 4 5 5 5
16 15 16 16 15 15 14 14 13 13 13 13 12 12 12 11 11 11 10 10 9 9 8 8 8 7 6 6 6 6 6 6 6 5 4 4 4 4 4 4 3 4 4
16 16 16 16 16 15 15 14 14 13 13 13 13 13 12 12 11 11 11 10 10 9 9 8 8 7 6 6 5 6 5 5 5 5 5 5 4 3 3 3 4 4 4
17 16 16 16 16 16 15 14 14 14 13 13 13 13 13 12 12 12 11 11 10 9 8 8 7 6 6 5 5 5 5 5 5 5 5 5 4 4 4 4 3 3 3
17 16 17 16 16 16 15 15 14 14 13 13 13 13 13 13 12 12 11 11 10 10 9 8 7 6 6 6 5 5 5 5 4 4 4 4 4 4 3 3 3 3 3
17 17 16 16 16 16 16 15 15 14 14 14 13 13 13 13 12 11 11 10 10 11 10 8 6 6 6 6 5 5 4 4 4 3 3 4 4 4 3 3 3 2 2
18 17 16 16 16 16 16 16 15 14 14 14 14 14 13 13 12 11 11 11 11 11 10 8 6 6 5 5 5 5 5 5 4 4 3 4 4 3 3 3 3 2 2
18 17 17 16 16 16 15 15 15 15 15 14 14 14 13 13 12 11 11 11 12 11 10 9 7 6 5 5 5 5 5 5 5 4 3 3 3 2 3 2 3 3 3
18 18 17 16 16 16 16 15 15 15 15 15 14 14 13 12 12 12 11 11 11 10 10 9 8 6 6 5 5 4 5 5 4 3 3 3 2 1 2 2 2 2 2
17 18 18 18 16 16 15 15 15 15 15 14 14 13 12 11 11 11 12 11 11 11 10 9 8 7 6 5 4 4 5 4 3 3 3 2 2 1 2 2 2 2 1
17 17 17 18 17 16 15 14 15 14 14 13 12 12 10 9 10 11 12 11 10 10 9 8 7 6 6 5 5 4 4 3 3 3 2 2 2 2 2 2 2 1 1
17 17 17 17 17 17 17 15 14 13 12 13 12 11 9 10 10 10 10 10 9 8 8 8 7 6 6 5 4 4 4 3 2 2 3 2 2 2 2 1 1 0 1
17 17 17 17 17 17 17 16 13 12 12 12 12 12 10 10 9 9 9 9 8 8 7 7 6 5 6 5 4 3 3 2 2 2 2 2 2 1 1 1 0 0 0
17 17 17 17 17 17 16 16 13 12 12 11 10 10 10 8 9 9 9 8 8 7 6 6 5 5 4 4 4 3 3 3 3 3 2 2 2 1 0 0 0 1 1
16 16 16 16 15 14 14 14 14 11 10 9 10 10 9 9 10 9 7 7 7 7 6 6 5 4 5 4 4 3 3 3 3 3 2 2 1 1 0 1 1 0 0
15 15 13 13 12 12 11 10 10 9 8 8 10 9 10 11 10 8 7 7 6 6 5 5 5 4 4 4 3 3 3 3 2 2 2 2 1 1 1 1 0 -0 -0
12 12 12 13 11 10 9 11 6 7 9 8 9 10 11 9 9 7 6 6 5 5 4 4 4 4 4 3 3 3 2 2 2 2 2 2 1 1 1 0 -0 -0 -0
10 10 9 10 10 10 10 10 6 9 9 9 10 9 8 7 7 7 6 5 5 5 4 4 4 4 3 3 3 3 3 2 2 2 2 2 1 1 0 -0 -0 -1 -1
8 8 9 8 9 9 11 9 7 9 9 8 8 7 8 6 6 6 5 5 5 4 4 4 4 3 3 2 2 3 2 2 2 2 2 1 1 0 0 -0 -1 -1 -1
7 7 7 8 8 8 7 7 8 7 6 7 8 8 7 5 5 5 4 4 4 4 4 3 3 3 3 2 2 2 2 2 2 2 1 1 1 1 0 -0 -1 -1 -2
6 6 6 6 7 7 7 7 7 6 6 7 7 5 5 4 4 4 4 4 4 4 3 3 3 2 2 2 2 2 2 2 2 2 1 1 1 1 -0 -1 -1 -2 -2
7 5 5 5 6 6 6 6 6 5 5 5 4 4 4 4 4 4 4 3 3 3 2 2 2 2 2 2 2 2 2 2 2 2 2 1 1 0 -0 -1 -1 -2 -2
5 5 5 4 4 4 4 4 4 4 3 3 4 3 2 3 3 3 3 3 3 3 3 3 2 2 3 3 2 2 2 2 2 2 1 1 1 -0 -0 -1 -1 -1 -2
4 3 3 4 4 4 3 3 3 2 3 3 2 2 3 2 2 2 1 1 2 2 1 1 2 2 3 2 2 2 2 2 2 2 1 1 0 -0 -1 -1 -1 -1 -1
3 3 4 4 3 3 3 3 3 2 3 2 2 2 1 2 2 1 1 0 -0 0 0 -0 1 2 2 2 2 1 2 2 2 1 1 1 0 -0 -0 -1 -1 -1 -1
3 3 3 2 2 2 2 2 2 2 2 2 2 1 -0 0 0 0 1 0 -1 -1 -1 -0 -0 0 -0 -0 0 1 1 1 1 1 1 1 0 -0 -1 -1 -1 -1 -1

GFSGL_700_temp_042.txt.gz
Temp
14 13 13 12 11 11 13 13 13 13 13 12 12 12 11 11 11 11 11 10 10 10 9 9 8 8 8 8 7 7 7 7 6 6 6 6 6 6 5 5 5 5 5
15 14 14 13 12 11 13 14 13 13 13 13 12 12 12 12 11 11 11 11 10 10 9 9 8 8 8 7 7 7 7 6 6 6 5 5 5 5 5 5 5 5 4
16 15 14 14 14 13 13 14 14 13 13 13 13 12 12 12 12 12 11 11 11 10 10 9 9 8 8 7 7 6 6 6 6 5 5 5 4 4 4 5 5 5 5
16 16 15 15 15 14 13 14 15 14 14 13 13 12 12 12 12 12 12 11 11 11 10 10 9 9 8 7 7 6 6 5 5 5 6 5 4 4 4 5 5 5 4
17 16 16 16 15 15 14 14 14 14 14 14 13 13 12 12 12 12 12 12 11 11 10 10 9 8 8 8 7 6 6 5 5 5 5 5 5 4 4 4 4 4 4
17 17 17 16 16 15 15 14 15 15 14 14 14 13 13 12 12 12 12 12 12 11 11 10 10 10 9 8 8 7 6 6 5 5 5 4 4 4 4 3 3 3 4
18 17 17 17 17 16 15 15 15 15 15 14 14 14 13 13 13 13 13 12 12 12 11 11 10 9 9 8 8 8 7 6 5 5 4 5 4 4 3 3 3 4 3
18 18 17 17 17 17 16 15 15 15 15 15 14 14 14 14 13 13 13 12 12 12 11 11 9 9 10 10 9 8 7 7 5 5 4 4 5 4 3 4 3 2 3
18 18 18 18 17 17 16 16 16 15 15 15 15 15 14 14 14 13 13 12 12 12 11 11 10 9 8 9 9 8 7 7 5 4 5 4 4 4 3 4 3 3 3
18 18 18 18 17 17 17 16 16 15 15 15 15 15 15 14 14 14 13 13 12 11 12 10 10 10 9 10 10 8 8 6 4 5 4 4 4 4 3 3 2 3 3
18 18 18 18 18 17 17 16 16 15 15 15 14 14 14 14 14 13 13 12 12 11 10 10 10 10 9 9 8 8 8 5 4 4 4 4 4 4 3 3 3 3 3
18 18 18 18 18 17 17 17 17 16 15 15 15 15 14 13 12 12 12 10 10 9 10 8 7 8 9 9 8 8 7 5 5 5 4 3 3 3 3 3 3 3 3
17 17 17 17 17 17 17 17 16 17 16 16 16 15 15 14 13 12 12 12 9 9 9 8 7 8 9 9 7 7 7 6 5 4 3 3 3 3 3 2 2 2 2
17 17 17 17 17 17 17 16 16 16 16 16 15 15 14 13 11 11 11 8 8 8 8 8 8 7 8 7 7 7 6 5 4 4 4 4 3 3 2 2 2 2 2
16 16 16 16 16 16 16 16 16 15 15 15 15 13 13 11 10 10 9 10 8 6 6 9 9 7 7 7 6 5 5 5 4 4 4 4 3 3 2 2 2 2 2
16 16 16 16 16 16 16 16 16 15 15 14 12 10 10 10 10 9 6 4 5 6 7 8 7 7 6 6 5 4 5 5 4 4 3 3 3 2 2 2 2 2 2
15 15 15 15 15 15 15 15 14 14 14 13 11 12 9 6 5 7 7 6 5 5 6 6 7 6 5 5 5 5 5 4 4 3 3 3 3 2 2 2 2 2 2
15 15 15 14 14 14 13 12 11 12 11 10 10 10 11 8 4 5 8 5 5 5 6 6 6 5 5 5 5 5 5 4 3 3 3 3 2 2 2 3 2 2 2
14 13 12 12 12 12 11 9 8 8 7 8 8 9 10 7 5 5 5 5 5 5 5 5 5 5 5 5 5 4 4 3 3 2 2 3 3 2 2 2 2 2 2
11 11 10 9 10 10 9 7 7 6 6 7 7 8 8 7 6 6 5 5 6 5 5 5 5 5 5 4 4 3 3 3 2 2 2 3 2 2 3 3 3 2 1
9 9 8 9 9 9 8 7 6 6 6 7 6 6 5 5 5 5 5 4 4 5 4 4 4 4 4 4 3 3 3 3 2 3 3 3 2 2 2 3 3 2 1
7 7 7 7 7 7 6 6 5 6 6 6 6 5 5 4 4 4 4 4 4 4 4 3 4 4 3 3 3 3 3 3 3 3 2 2 3 2 3 3 2 2 1
6 6 6 7 6 6 5 5 5 5 4 4 4 4 4 4 4 4 4 4 4 4 3 3 3 3 3 3 4 4 3 4 3 3 3 3 3 3 3 3 2 2 1
5 5 5 4 4 4 4 5 5 4 4 4 4 4 3 3 3 3 3 3 3 3 3 2 2 2 3 3 4 3 3 3 3 2 3 3 3 3 3 2 2 1 1
3 3 3 3 3 3 4 3 3 2 3 3 2 2 2 2 3 2 2 2 2 2 1 1 1 2 2 3 2 2 2 2 2 2 2 2 3 3 2 2 2 1 1
2 2 3 3 3 3 3 3 2 3 3 2 1 2 1 2 1 1 1 1 1 0 0 -0 -0 -0 -0 -0 -0 0 0 1 2 2 2 3 2 2 2 2 1 1 1

GFSGL_700_temp_045.txt.gz
Temp
13 13 13 12 12 12 11 12 12 12 12 12 12 12 12 11 11 11 11 11 11 10 10 10 9 9 9 8 8 8 7 7 7 6 6 6 6 6 6 6 6 5 5
14 14 13 13 12 12 12 12 12 13 13 12 12 12 12 11 11 11 11 11 11 11 10 10 10 9 9 9 8 8 7 7 7 6 6 6 6 6 6 6 6 6 5
15 15 14 14 13 13 13 12 13 13 13 13 12 12 12 12 12 12 11 11 11 11 10 10 10 10 9 9 9 8 7 7 6 6 6 6 6 6 6 5 5 5 5
16 15 15 15 14 14 14 13 13 14 13 13 13 12 12 12 12 12 12 12 11 11 11 10 10 10 10 9 9 8 8 7 7 6 6 6 5 5 5 5 5 5 5
16 16 16 16 15 15 14 14 14 14 14 14 13 13 13 12 12 12 12 12 12 11 11 11 10 10 10 9 10 8 8 8 7 6 6 5 6 5 4 5 5 5 4
17 17 16 16 16 16 15 15 14 14 15 14 14 14 14 13 13 13 12 12 12 12 12 11 10 10 10 9 9 9 9 8 8 8 6 6 5 5 5 4 4 4 4
17 17 17 17 17 17 16 16 15 15 15 15 15 14 14 13 13 13 12 12 12 12 12 11 10 10 10 9 8 10 8 8 8 8 7 6 5 5 4 4 4 4 3
18 17 17 17 17 17 17 16 16 15 15 15 15 15 15 14 14 13 13 12 12 12 12 11 10 10 9 10 8 8 8 8 8 7 7 6 5 5 5 5 5 4 4
18 18 18 18 17 17 17 17 16 16 16 15 15 15 15 15 14 14 13 13 13 13 13 12 11 10 10 9 8 7 8 9 9 8 6 6 5 4 4 5 4 4 3
18 18 18 18 18 18 17 17 17 17 16 16 15 15 15 15 15 14 14 13 13 13 13 12 11 10 10 9 9 8 8 8 7 6 6 6 5 5 5 4 4 3 3
18 18 18 18 18 18 17 17 17 17 16 15 15 15 15 15 14 14 14 14 14 13 13 13 12 11 10 10 9 9 8 6 8 7 6 6 5 5 4 3 4 4 4
17 18 18 18 18 18 17 17 16 16 14 12 12 15 15 15 15 15 14 13 11 10 11 13 13 10 9 9 9 9 8 7 6 6 6 5 5 5 4 4 4 4 4
18 18 18 18 17 17 17 17 17 15 13 13 15 16 16 15 16 16 15 13 12 10 10 9 9 9 8 9 8 7 7 6 5 5 6 5 5 4 4 4 4 4 3
17 18 18 17 17 17 17 17 17 17 15 15 15 16 16 16 16 16 15 13 12 11 9 8 8 6 6 7 7 7 6 6 5 5 5 4 4 4 4 4 3 4 3
17 17 17 17 17 17 17 17 16 16 16 16 16 16 16 15 15 15 14 13 13 10 8 8 5 3 5 6 7 6 6 6 5 5 4 4 4 4 4 4 4 4 3
17 17 17 16 16 16 16 16 16 16 16 16 16 16 16 15 14 14 14 12 12 10 12 6 7 5 5 6 5 5 6 5 5 4 3 4 4 4 4 4 4 3 3
16 16 16 16 16 16 16 16 16 15 15 15 14 14 13 11 11 10 10 9 8 7 9 9 5 5 5 5 5 5 5 5 4 4 3 3 4 4 4 4 4 3 2
15 15 15 15 15 15 15 15 15 14 14 14 14 12 9 9 8 9 8 8 9 7 6 5 6 5 5 5 5 5 5 4 4 4 3 3 4 4 4 4 3 3 2
15 15 15 15 15 15 14 14 13 12 12 11 9 7 7 8 7 8 9 7 6 5 4 4 5 5 5 5 5 5 4 4 4 3 3 3 4 4 4 4 3 3 2
14 14 14 14 13 13 12 11 11 11 9 8 7 6 7 6 6 6 5 6 6 5 5 4 5 4 5 5 4 4 4 4 4 3 3 4 4 4 4 3 3 2 2
13 12 11 10 10 10 10 9 10 8 7 8 8 7 6 6 6 5 5 5 5 5 5 5 4 4 4 4 4 4 4 3 3 3 4 4 4 4 3 3 3 2 2
10 9 9 8 9 8 7 7 7 7 7 7 7 7 6 6 6 5 6 5 5 5 4 4 4 4 4 4 4 4 4 3 4 4 4 3 4 3 3 3 2 2 1
8 7 7 7 7 6 6 6 6 6 6 6 6 6 6 5 5 5 5 5 5 4 4 4 4 4 4 4 4 4 4 4 4 4 4 3 3 3 3 3 2 1 1
5 5 5 5 5 5 5 5 6 6 5 5 5 5 5 4 4 4 4 4 4 4 4 4 4 4 4 4 4 4 4 4 4 4 3 3 3 3 3 2 2 1 0
4 3 4 3 3 4 4 4 4 5 6 5 4 3 3 4 3 3 3 3 3 3 3 3 3 3 3 3 3 4 4 3 3 3 3 3 3 3 3 2 2 1 -0
3 3 3 3 3 3 3 3 3 3 3 3 3 3 2 2 2 2 2 2 2 2 2 1 1 2 2 2 3 3 2 2 2 2 2 3 3 2 2 2 1 1 -0

GFSGL_700_temp_048.txt.gz
Temp
14 14 13 14 14 13 13 13 13 13 13 12 13 13 12 12 12 11 11 11 11 11 11 10 10 10 10 10 10 9 9 10 10 9 9 9 7 7 7 7 6 6 6
15 14 14 14 13 13 13 13 13 13 13 13 13 13 12 12 12 12 11 11 11 11 11 11 11 11 11 10 10 9 9 9 9 9 9 8 8 8 7 7 6 6 6
15 15 14 14 14 14 14 13 13 13 13 13 13 13 13 12 12 12 12 12 11 11 11 11 11 11 11 10 10 10 9 9 8 8 9 8 7 7 7 7 6 6 6
16 15 15 15 14 14 14 14 13 13 13 13 14 13 13 13 12 13 12 12 12 12 11 11 11 11 10 10 10 10 9 8 8 8 8 8 7 6 6 6 6 6 6
17 16 16 15 15 14 14 14 14 14 14 14 14 14 14 13 13 13 13 13 12 12 12 12 11 11 11 11 10 11 10 9 8 8 9 8 7 6 6 6 6 5 5
17 17 16 16 15 15 15 15 14 14 14 14 15 15 15 14 14 13 13 13 13 12 12 12 12 11 11 11 10 10 9 9 9 10 9 9 8 6 5 5 5 5 5
18 17 17 16 16 16 16 15 15 15 15 15 15 15 15 15 15 14 13 13 13 13 12 12 12 12 11 10 10 9 9 9 10 11 10 9 8 6 5 5 5 5 4
18 18 17 17 16 16 16 16 16 16 16 16 15 15 15 15 15 15 14 13 13 13 12 12 12 12 11 11 10 11 11 10 9 9 9 9 8 7 6 5 5 4 5
18 18 17 17 17 17 17 17 17 16 16 15 15 15 15 14 14 14 14 13 13 13 13 12 12 12 12 11 10 10 10 10 9 9 8 8 8 7 6 5 5 5 5
18 18 17 17 17 17 17 17 17 16 16 16 16 15 15 15 14 13 13 12 11 11 11 13 13 13 12 12 10 9 10 9 7 8 8 9 9 7 6 5 5 5 4
18 18 17 17 17 17 17 17 17 17 17 16 16 15 15 14 14 14 13 12 11 10 10 11 12 12 11 11 9 8 8 7 7 7 7 8 8 8 7 5 4 4 4
18 18 18 18 18 18 17 17 17 17 17 17 16 16 15 14 14 15 14 14 13 11 10 10 11 10 10 8 7 8 6 6 6 6 7 7 8 8 7 5 4 5 4
18 18 18 18 18 18 18 17 17 18 17 17 17 17 17 15 14 15 15 14 14 12 12 11 11 10 10 8 8 6 6 5 5 6 6 6 7 7 5 4 5 5 4
18 19 18 18 18 18 18 17 17 17 17 17 16 16 16 15 15 15 14 15 13 13 13 13 12 10 10 10 10 10 4 5 4 5 5 6 6 6 4 5 5 4 4
18 18 18 18 18 18 17 17 17 17 17 16 16 16 15 15 15 14 14 13 13 13 11 12 12 11 10 9 9 11 9 6 3 4 5 6 6 6 5 5 5 4 4
17 17 17 17 17 17 17 17 17 16 16 17 16 16 16 15 15 15 15 14 12 11 10 10 9 9 8 8 9 9 5 5 5 5 5 6 6 5 5 5 4 3 4
17 17 17 17 17 17 17 16 16 16 16 16 16 16 16 15 15 14 13 12 11 10 9 9 8 6 6 7 7 6 6 5 5 4 5 6 5 5 5 4 3 4 4
17 17 17 17 17 16 16 16 16 16 16 15 15 15 15 14 14 13 11 10 9 8 7 6 6 5 5 5 5 4 6 6 5 5 5 5 5 5 4 3 4 4 4
16 16 16 15 15 15 15 15 15 15 15 15 15 14 13 11 10 8 8 7 8 8 6 5 5 4 4 4 4 5 5 6 5 5 5 4 4 4 3 3 3 4 4
14 14 14 14 14 14 14 14 14 14 13 13 12 12 11 10 8 7 7 7 7 6 5 5 4 4 5 5 5 5 5 5 5 4 4 4 4 3 3 3 3 4 4
13 14 14 14 14 14 14 13 12 12 11 11 10 9 9 9 7 6 6 5 5 6 5 5 5 5 5 5 5 5 5 4 4 4 4 4 3 3 3 3 3 4 4
11 11 11 11 11 11 11 10 10 10 9 8 8 8 8 7 6 6 6 6 6 6 5 5 5 5 5 5 5 4 4 4 4 3 3 3 3 3 3 3 3 4 4
8 9 8 8 8 8 8 8 7 6 6 7 7 7 6 6 6 5 5 5 5 5 5 5 5 5 4 4 4 4 4 4 4 3 3 3 3 3 3 3 3 4 4
7 7 7 7 6 6 5 6 6 6 6 6 6 5 5 5 5 5 5 5 4 5 4 4 4 4 4 4 4 4 3 4 4 3 3 3 3 3 3 3 3 3 3
5 5 5 5 5 5 5 5 6 6 6 5 5 4 4 4 4 4 4 4 4 4 4 3 3 4 4 4 4 3 4 3 3 3 3 2 3 3 3 3 3 3 3
4 4 4 4 4 4 4 4 4 5 4 4 4 3 3 3 3 3 3 3 3 3 3 3 3 3 3 3 3 3 3 3 3 3 3 2 3 3 3 3 3 2 2